LKCS Weather Reports


Display with metric or nautical units.
time (UTC)temp
F
wind
direction
speed
MPH
gust
MPH
rain 1hr
in
rain 24hr
in
rain mn
in
humidity
%
barometer
mb
20260505090313 73 140 3.0 0.0 0.00 0.00 0.00 40 1007.0
20260505083305 70 70 3.0 0.0 0.00 0.00 0.00 49 1007.0
20260505080252 70 0 2.0 0.0 0.00 0.00 0.00 49 1008.0
20260505073238 66 110 3.0 0.0 0.00 0.00 0.00 52 1008.0
20260505070322 64 100 3.0 0.0 0.00 0.00 0.00 55 1008.0
20260505063237 61 0 2.0 0.0 0.00 0.00 0.00 67 1008.0
20260505060313 59 0 2.0 0.0 0.00 0.00 0.00 72 1009.0
20260505053227 57 80 5.0 0.0 0.00 0.00 0.00 76 1009.0
20260505050245 54 90 2.0 0.0 0.00 0.00 0.00 81 1009.0
20260505040247 48 260 2.0 0.0 0.00 0.00 0.00 81 1009.0
20260505033305 50 0 0.0 0.0 0.00 0.00 0.00 81 1009.0
20260505030307 52 270 2.0 0.0 0.00 0.00 0.00 76 1009.0
20260505023231 54 0 2.0 0.0 0.00 0.00 0.00 76 1009.0
20260505020245 57 0 0.0 0.0 0.00 0.00 0.00 71 1009.0
20260505013305 55 0 1.0 0.0 0.00 0.00 0.00 76 1009.0
20260505010246 55 0 1.0 0.0 0.00 0.00 0.00 76 1010.0
20260505003304 59 0 2.0 0.0 0.00 0.00 0.00 67 1010.0
20260505000307 61 260 5.0 0.0 0.00 0.00 0.00 63 1010.0
20260504233231 61 0 0.0 0.0 0.00 0.00 0.00 63 1010.0
20260504230306 63 260 3.0 0.0 0.00 0.00 0.00 59 1011.0
20260504223304 64 270 5.0 0.0 0.00 0.00 0.00 55 1011.0
20260504220247 66 310 5.0 0.0 0.00 0.00 0.00 52 1011.0
20260504213304 66 320 5.0 0.0 0.00 0.00 0.00 52 1011.0
20260504210307 66 310 6.0 0.0 0.00 0.00 0.00 48 1011.0
20260504203230 63 280 5.0 0.0 0.00 0.00 0.00 59 1011.0
20260504200307 63 0 2.0 0.0 0.00 0.00 0.00 59 1011.0
20260504193231 64 0 1.0 0.0 0.00 0.00 0.00 52 1011.0
20260504190248 66 30 2.0 0.0 0.00 0.00 0.00 48 1011.0
20260504183238 72 0 2.0 0.0 0.00 0.00 0.00 37 1010.0
20260504180240 73 50 3.0 0.0 0.00 0.00 0.00 35 1010.0
20260504173305 73 60 3.0 0.0 0.00 0.00 0.00 33 1010.0
20260504170306 75 50 3.0 0.0 0.00 0.00 0.00 31 1010.0
20260504160307 77 60 3.0 0.0 0.00 0.00 0.00 27 1011.0
20260504150315 75 0 2.0 0.0 0.00 0.00 0.00 29 1011.0
20260504140312 77 0 3.0 0.0 0.00 0.00 0.00 29 1012.0
20260504130254 77 0 6.0 0.0 0.00 0.00 0.00 31 1012.0
20260504120313 77 150 6.0 0.0 0.00 0.00 0.00 29 1013.0
20260504110315 75 0 5.0 0.0 0.00 0.00 0.00 31 1013.0
20260504100247 73 0 3.0 0.0 0.00 0.00 0.00 35 1014.0